{"data":{"norad_id":65393,"intl_designator":"2025-191Q","name":"STARLINK-35097","alt_names":[],"object_type":"PAYLOAD","status":"ACTIVE","operator":null,"country":"US","launch_date":"2025-08-30","launch_site_code":"AFWTR","launch_vehicle":null,"mission":null,"orbit_class":"UNKNOWN","rcs_meters":null,"size_class":null,"mass_kg":null,"dimensions":null,"purposes":["comms"],"wikipedia_slug":null,"has_3d_model":false,"image_url":null,"decayed_at":null,"tle_current":{"epoch":"2026-05-25T03:31:59.783808Z","epoch_age_seconds":58387,"freshness":"FRESH","line1":"1 65393U 25191Q   26145.14721972  .00003384  00000+0  23843-3 0  9995","line2":"2 65393  97.4506  16.5019 0001720  74.3981 285.7436 15.05659999 40325","mean_motion":15.05659999,"eccentricity":0.000172,"inclination_deg":97.4506,"raan_deg":16.5019,"arg_perigee_deg":74.3981,"mean_anomaly_deg":285.7436,"bstar":0.00023843,"rev_number":4032,"period_min":95.639121777585,"perigee_km":548.28893306054,"apogee_km":550.67203347479,"semimajor_km":6927.6174832677,"source":"CELESTRAK","updated_at":"2026-05-25T13:38:20.774925Z"}}}